Regional Weather Roundup
Issued by NWS

Home | Current Version | Previous Version | Graphics & Text | Print | Product List | Glossary On
Versions: 1 2 3 4 5 6 7 8 9 10 11 12 13 14 15 16 17 18 19 20 21 22 23 24 25 26 27 28 29 30 31 32 33 34 35 36 37 38 39 40 41 42 43 44 45 46 47 48 49
000
ASUS45 KTFX 260110
RWRMT
MONTANA REGIONAL WEATHER ROUNDUP
NATIONAL WEATHER SERVICE GREAT FALLS MT
700 PM MDT MON MAY 25 2015

NOTE: "FAIR" INDICATES FEW OR NO CLOUDS BELOW 12000 FEET WITH NO
SIGNIFICANT WEATHER AND/OR OBSTRUCTIONS TO VISIBILITY.

MTZ001>007-043-260200-
WEST OF THE DIVIDE

CITY           SKY/WX    TMP DP  RH WIND       PRES   REMARKS
KALISPELL      MOCLDY    61  47  59 SE10      29.89S
MISSOULA       LGT RAIN  57  46  66 N8        29.93F
BUTTE          LGT RAIN  56  43  61 NW14      29.92R
MULLAN PASS    CLOUDY    47  44  90 CALM      29.97F
DEER LODGE       N/A     55  43  62 NW23G30   29.91R
EUREKA           N/A     66  45  45 SW9       29.86S
HAMILTON         N/A     59  46  63 N16       29.90S
LIBBY            N/A     61  48  63 SE5       29.90S
RONAN            N/A     56  49  77 S5        29.99S
THOMPSON FALLS   N/A     59  50  72 E3        29.96S
$$

MTZ008-052>055-260200-
SOUTHWEST MONTANA

CITY           SKY/WX    TMP DP  RH WIND       PRES   REMARKS
BOZEMAN        SUNNY     66  37  34 CALM      29.84F
DILLON         CLOUDY    65  36  34 NW15      29.85S
W YELLOWSTONE  LGT RAIN  46  41  81 E9        29.97R
THREE FORKS      N/A     70  52  52 SE3       29.86R
TWIN BRIDGES     N/A     68  38  33 NW10      29.87R
$$

MTZ009-010-012-014-046-048-049-054-260200-
EAST SLOPES AND CENTRAL MONTANA

CITY           SKY/WX    TMP DP  RH WIND       PRES   REMARKS
CUT BANK       LGT RAIN  56  45  66 W14G25    29.85F
GREAT FALLS    MOSUNNY   68  42  38 E9        29.82F
HELENA         PTSUNNY   70  38  31 SW10      29.83R
CONRAD           N/A     70  44  38 NE6       29.88S
$$

MTZ011-013-016-021-045-047-050-051-260200-
NORTH CENTRAL MONTANA

CITY           SKY/WX    TMP DP  RH WIND       PRES   REMARKS
HAVRE          SUNNY     74  37  26 E13       29.80F
LEWISTOWN      PTSUNNY   68  45  43 MISG      29.87S
N BAR RANCH    MOCLDY    61  46  59 CALM      29.92S
CHINOOK          N/A     75  36  23 E8        29.81S
FORT BENTON      N/A     73  41  31 CALM      29.81S
$$

MTZ017>020-022>027-061-062-260200-
NORTHEAST MONTANA

CITY           SKY/WX    TMP DP  RH WIND       PRES   REMARKS
GLASGOW        SUNNY     72  46  39 S17       29.84S
JORDAN           N/A     67  50  54 S14       29.86S
SIDNEY         MOSUNNY   70  48  46 CALM      29.88S
WOLF POINT     MOSUNNY   73  46  38 S9        29.86S
MALTA            N/A     76  40  27 CALM      29.80S
POPLAR           N/A     66  50  55 E14       29.89R
SCOBEY           N/A     73  41  31 SE8       29.86R
$$

MTZ028>42-056>058-260200-
SOUTHCENTRAL AND SOUTHEAST MONTANA

CITY           SKY/WX    TMP DP  RH WIND       PRES   REMARKS
BAKER          CLOUDY    62  49  62 SE14      29.92S
BILLINGS       MOSUNNY   68  46  45 SE10      29.88R
LIVINGSTON     MOSUNNY   68  41  37 E10       29.85F
MILES CITY     CLOUDY    64  49  57 SE6       29.88F
BIG TIMBER       N/A     64  45  48 E10       29.88S
EKALAKA          N/A     57  50  78 E7        29.92R
FORSYTH          N/A     64  50  59 SE6       29.89S
LAUREL           N/A     67  43  41 E5        29.88S
ROUNDUP          N/A     66  46  48 E8        29.81S
$$

REGIONAL REPORTS...DAKOTAS

CITY           SKY/WX    TMP DP  RH WIND       PRES   REMARKS
WILLISTON      MOSUNNY   70  47  43 SW12      29.87R
MINOT          MOSUNNY   74  45  35 SW5       29.80F
DICKINSON      PTSUNNY   64  47  53 S6        29.88S
BEACH          FAIR      63  48  59 S12       29.91S
CROSBY         FAIR      75  39  27 SW6       29.83S
WATFORD CITY   FAIR      64  48  55 SW7       29.85S
BISMARCK       CLOUDY    67  55  65 SW8       29.85S
GRAND FORKS    PTCLDY    69  51  52 S13       29.78S
FARGO          CLOUDY    63  55  75 E6        29.82R
BUFFALO SD       N/A     57  52  83 SE5       29.87R
RAPID CITY     CLOUDY    55  53  93 NE12      29.89R
$$

REGIONAL REPORTS...WYOMING/IDAHO/WASHINGTON

CITY           SKY/WX    TMP DP  RH WIND       PRES   REMARKS
GILLETTE       PTSUNNY   56  48  74 N10       29.93S
SHERIDAN       PTSUNNY   59  50  72 S7        29.92S
BUFFALO WY     PTSUNNY   55  46  71 N8        29.96R
CODY           PTSUNNY   61  43  51 CALM      29.93S
YELLOWSTONE LA   N/A     44  41  89 W3        30.04F
IDAHO FALLS    LGT RAIN  59  45  59 N8        29.91F
SALMON         CLOUDY    64  39  39 W9        29.84R
BOISE          CLOUDY    69  47  45 SE15G23   29.84F
SPOKANE        CLOUDY    59  53  80 SW3       29.87F
$$

REGIONAL REPORTS...ALBERTA

CITY           SKY/WX    TMP DP  RH WIND       PRES   REMARKS
EDMONTON       PTSUNNY   77  36  22 NE5       29.81S
CALGARY        PTSUNNY   64  37  36 W8        29.86F
LETHBRIDGE     LGT RAIN  63  45  51 E20G28    29.84R
MEDICINE HAT   PTSUNNY   77  36  22 S5        29.80F
$$

REGIONAL REPORTS...SASKATCHEWAN

CITY           SKY/WX    TMP DP  RH WIND       PRES   REMARKS
SWIFT CURRENT  PTSUNNY   72  34  25 SE8       29.84S
REGINA         PTSUNNY   73  41  31 NW8       29.82S
SASKATOON      MOSUNNY   77  39  25 N10G17    29.81R
$$


USA.gov is the U.S. government's official web portal to all federal, state and local government web resources and services.